Weather History for Winnemucca, NV

Change the Weather History Date:

Tuesday, January 15, 2013

  Actual Average Record
Temperature  
Mean Temperature 9 °F 30 °F  
Max Temperature 25 °F 41 °F 65 °F (1974)
Min Temperature -7 °F 19 °F -28 °F (1888)
Degree Days  
Heating Degree Days 56 35  
Month to date heating degree days 848 536  
Since 1 July heating degree days 3184 3209  
Cooling Degree Days 0 0  
Month to date cooling degree days 0 0  
Year to date cooling degree days 0 0  
Moisture  
Dew Point 0 °F    
Average Humidity 73    
Maximum Humidity 95    
Minimum Humidity 50    
Precipitation  
Precipitation 0.00 in 0.03 in 0.60 in (1906)
Month to date precipitation 0.16 0.46  
Year to date precipitation 0.16 0.46  
Snow  
Snow 0.00 in 0.10 in 8.20 in (1906)
Month to date snowfall 1.9 1.9  
Since 1 July snowfall 16.7 10.7  
Snow Depth 4.00 in    
Sea Level Pressure  
Sea Level Pressure 30.79 in    
Wind  
Wind Speed 2 mph (SSE)    
Max Wind Speed 8 mph    
Max Gust Speed 9 mph    
Visibility 10 miles    
Events      
T = Trace of Precipitation, MM = Missing Value Source: NWS Daily Summary

Daily Weather History Graph

Daily Weather History Graph

Search for Another Location

Airport:

Trip Planner

Search our weather history database for the weather conditions in past years. The results will help you decide how hot, cold, wet, or windy it might be!

Date:

Astronomy

Jan. 15, 2013 Rise Set
Actual Time 7:13 AM PST 4:48 PM PST
Civil Twilight 6:43 AM PST 5:18 PM PST
Nautical Twilight 6:09 AM PST 5:52 PM PST
Astronomical Twilight 5:36 AM PST 6:25 PM PST
Moon 9:19 AM PST (1/15) 9:45 PM PST (1/15)
Length of Visible Light 10h 35m
Length of Day
9h 34m
Waxing Crescent, 20% of the Moon is Illuminated
Jan 15
Waxing Crescent
Jan 18
First Quarter
Jan 26
Full
Feb 3
Last Quarter
Feb 9
New

Hourly Weather History & Observations

Time (PST) Temp. Windchill Dew Point Humidity Pressure Visibility Wind Dir Wind Speed Gust Speed Precip Events Conditions
12:56 AM 5.0 °F - 1.0 °F 84% 30.66 in 10.0 mi Calm Calm - N/A   Clear
1:56 AM 1.9 °F -5.6 °F -0.9 °F 88% 30.68 in 10.0 mi West 3.5 mph - N/A   Clear
2:56 AM -0.0 °F -7.9 °F -2.9 °F 88% 30.70 in 10.0 mi East 3.5 mph - N/A   Clear
3:56 AM -0.0 °F - -4.0 °F 83% 30.70 in 10.0 mi Calm Calm - N/A   Scattered Clouds
4:56 AM -4.0 °F - -9.0 °F 79% 30.74 in 10.0 mi Calm Calm - N/A   Clear
5:56 AM -5.1 °F - -9.0 °F 83% 30.76 in 10.0 mi Calm Calm - N/A   Clear
6:56 AM -4.0 °F -12.4 °F -9.0 °F 79% 30.78 in 10.0 mi East 3.5 mph - N/A   Clear
7:56 AM -2.0 °F - -6.0 °F 83% 30.80 in 10.0 mi Calm Calm - N/A   Clear
8:56 AM 5.0 °F - -0.0 °F 80% 30.80 in 10.0 mi Calm Calm - N/A   Clear
9:56 AM 12.9 °F - 3.9 °F 67% 30.79 in 10.0 mi Calm Calm - N/A   Clear
10:56 AM 16.0 °F - 6.1 °F 65% 30.77 in 10.0 mi Calm Calm - N/A   Clear
11:56 AM 21.0 °F - 7.0 °F 55% 30.74 in 10.0 mi Calm Calm - N/A   Clear
12:56 PM 23.0 °F - 8.1 °F 53% 30.74 in 10.0 mi Calm Calm - N/A   Clear
1:56 PM 25.0 °F - 8.1 °F 49% 30.75 in 10.0 mi Calm Calm - N/A   Clear
2:56 PM 24.1 °F 19.7 °F 8.1 °F 51% 30.77 in 10.0 mi WNW 3.5 mph - N/A   Clear
3:56 PM 21.9 °F - 8.1 °F 55% 30.80 in 10.0 mi Calm Calm - N/A   Clear
4:56 PM 16.0 °F - 8.1 °F 71% 30.85 in 10.0 mi Calm Calm - N/A   Clear
5:56 PM 8.1 °F -0.5 °F 3.0 °F 80% 30.89 in 10.0 mi NW 4.6 mph - N/A   Clear
6:56 PM 3.0 °F - -0.9 °F 84% 30.92 in 10.0 mi Calm Calm - N/A   Clear
7:56 PM 3.0 °F -8.0 °F -0.9 °F 84% 30.91 in 10.0 mi SSE 5.8 mph - N/A   Clear
8:56 PM -0.9 °F -14.1 °F -5.1 °F 83% 30.90 in 10.0 mi SSE 6.9 mph - N/A   Clear
9:56 PM -2.0 °F -12.2 °F -6.0 °F 83% 30.88 in 10.0 mi South 4.6 mph - N/A   Clear
10:56 PM -4.0 °F - -9.0 °F 79% 30.88 in 10.0 mi Calm Calm - N/A   Clear
11:56 PM -5.1 °F -17.6 °F -9.0 °F 83% 30.86 in 10.0 mi SSE 5.8 mph - N/A   Clear